1506934800.31,48436,18.88,74296.5,7.73,-38.05,-39.03,0,*74
1506934801.53,48437,18.88,74294.8,7.73,-41.03,-42.51,0,*76
1506934802.78,48438,18.88,74294.5,7.67,-38.29,-39.53,0,*74
1506934803.99,48439,18.88,74294.8,7.67,-37.99,-39.35,0,*71
1506934805.23,48440,18.88,74294.5,7.65,-38.43,-39.53,0,*75
1506934806.45,48441,18.88,74294.5,7.63,-37.63,-38.97,0,*76
1506934807.66,48442,18.88,74290.8,7.59,-38.85,-40.03,0,*79
1506934808.88,48443,18.88,74294.8,7.59,-38.05,-39.29,0,*76
1506934810.1,48444,18.88,74296.0,7.59,-38.79,-40.03,0,*7C
1506934811.36,48445,18.88,74294.0,7.57,-36.01,-37.21,0,*72
1506934812.58,48446,18.88,74296.3,7.57,-35.29,-36.67,0,*7B
1506934813.84,48447,18.88,74298.5,7.57,-36.01,-37.21,0,*70
1506934815.09,48448,18.88,74300.5,7.57,-36.49,-37.75,0,*72
1506934816.31,48449,18.88,74302.8,7.57,-35.71,-36.85,0,*75
1506934817.54,48450,18.88,74302.0,7.59,-34.89,-35.83,0,*70
1506934818.76,48451,18.88,74298.3,7.59,-35.29,-36.37,0,*76
1506934819.99,48452,18.88,74300.0,7.59,-34.65,-35.59,0,*77
1506934821.24,48453,18.88,74296.8,7.59,-34.31,-35.23,0,*7A
1506934822.49,48454,18.88,74296.5,7.61,-34.01,-34.89,0,*74
1506934823.71,48455,18.88,74302.8,7.63,-34.25,-35.23,0,*70
1506934824.95,48456,18.88,74300.5,7.63,-34.95,-35.89,0,*78
1506934826.19,48457,18.88,74302.3,7.65,-34.25,-35.23,0,*74
1506934827.44,48458,18.88,74302.0,7.71,-33.27,-34.31,0,*79
1506934828.65,48459,18.88,74300.8,7.71,-33.21,-34.19,0,*74
1506934829.86,48460,18.88,74300.8,7.71,-34.47,-35.47,0,*73
1506934831.06,48461,18.88,74302.5,7.71,-34.13,-35.13,0,*72
1506934832.31,48462,18.88,74300.3,7.73,-33.61,-34.71,0,*74
1506934833.54,48463,18.88,74304.0,7.75,-34.95,-35.89,0,*79
1506934834.79,48464,18.88,74300.8,7.73,-33.77,-34.89,0,*72
1506934836.04,48465,18.81,74300.3,7.77,-34.13,-35.07,0,*75
1506934837.28,48466,18.88,74300.5,7.79,-33.27,-34.35,0,*78
1506934838.51,48467,18.88,74300.5,7.79,-33.73,-34.77,0,*7E
1506934839.73,48468,18.88,74302.0,7.79,-33.89,-34.89,0,*75
1506934840.96,48469,18.81,74300.3,7.79,-34.19,-35.29,0,*71
1506934842.18,48470,18.81,74298.0,7.79,-33.73,-34.89,0,*79
1506934843.46,48471,18.88,74302.5,7.83,-33.61,-34.53,0,*79
1506934844.66,48472,18.81,74302.3,7.81,-33.83,-34.89,0,*73
1506934845.91,48473,18.81,74298.8,7.83,-33.77,-34.89,0,*7B
1506934847.16,48474,18.88,74302.0,7.83,-34.35,-35.47,0,*7E
1506934848.41,48475,18.81,74294.8,7.83,-33.37,-34.35,0,*7E
1506934849.61,48476,18.81,74298.5,7.85,-33.55,-34.47,0,*7A
1506934850.84,48477,18.88,74298.5,7.87,-33.03,-33.95,0,*72
1506934852.09,48478,18.81,74296.3,7.89,-33.31,-34.35,0,*7F
1506934853.33,48479,18.81,74298.5,7.89,-33.73,-35.01,0,*7E
1506934854.56,48480,18.81,74292.3,7.93,-34.13,-35.23,0,*72
1506934855.78,48481,18.81,74292.3,7.89,-35.17,-36.13,0,*7D
1506934856.99,48482,18.81,74292.8,7.89,-33.67,-34.77,0,*7F
1506934858.23,48483,18.81,74292.0,7.89,-34.53,-35.47,0,*7C
1506934859.45,48484,18.81,74294.8,7.89,-32.91,-33.89,0,*77
1506934860.66,48485,18.81,74294.8,7.93,-32.13,-33.03,0,*75
1506934861.91,48486,18.81,74294.5,7.93,-32.85,-33.77,0,*7A
1506934863.12,48487,18.81,74298.8,7.93,-33.67,-34.71,0,*77
1506934864.32,48488,18.81,74296.8,7.93,-32.91,-33.67,0,*70
1506934865.57,48489,18.81,74294.8,7.95,-32.19,-33.03,0,*75
1506934866.83,48490,18.81,74294.8,7.97,-31.95,-32.79,0,*74
1506934868.06,48491,18.81,74292.0,7.99,-32.51,-33.37,0,*7B
1506934869.31,48492,18.81,74288.5,8.01,-32.19,-32.97,0,*71
1506934870.54,48493,18.81,74294.8,8.01,-33.55,-34.53,0,*77
1506934871.81,48494,18.81,74294.5,8.03,-33.27,-34.01,0,*70
1506934873.1,48495,18.81,74296.0,8.03,-32.19,-32.75,0,*78
1506934874.32,48496,18.81,74294.3,8.05,-32.35,-33.09,0,*79
1506934875.54,48497,18.81,74294.5,8.09,-32.23,-33.09,0,*73
1506934876.76,48498,18.81,74292.8,8.09,-33.31,-34.07,0,*77
1506934877.99,48499,18.81,74290.3,8.09,-32.45,-33.37,0,*70
1506934879.22,48500,18.81,74294.0,8.09,-32.75,-33.67,0,*77
1506934880.45,48501,18.75,74290.0,8.15,-32.57,-33.43,0,*7D
1506934881.69,48502,18.75,74290.0,8.15,-33.27,-34.19,0,*70
1506934882.91,48503,18.81,74294.3,8.15,-33.27,-34.13,0,*7B
1506934884.1,48504,18.81,74292.8,8.15,-33.83,-34.89,0,*71
1506934885.35,48505,18.75,74288.5,8.17,-33.37,-34.31,0,*7E
1506934886.57,48506,18.81,74290.5,8.17,-32.51,-33.55,0,*79
1506934887.8,48507,18.75,74288.8,8.19,-32.29,-33.21,0,*7A
1506934889.05,48508,18.81,74292.5,8.19,-32.45,-33.43,0,*7B
1506934890.26,48509,18.75,74288.3,8.19,-33.95,-35.01,0,*76
1506934891.47,48510,18.75,74288.3,8.19,-34.71,-36.01,0,*70
1506934892.7,48511,18.75,74288.5,8.19,-35.41,-36.55,0,*72
1506934893.99,48512,18.75,74284.3,8.17,-34.53,-35.41,0,*7B
1506934895.24,48513,18.75,74280.3,8.17,-33.95,-34.65,0,*70
1506934896.52,48514,18.75,74284.0,8.17,-32.45,-33.43,0,*78
1506934897.75,48515,18.75,74286.3,8.19,-34.47,-35.65,0,*71
1506934898.98,48516,18.75,74284.3,8.19,-33.09,-34.07,0,*7A
1506934900.25,48517,18.75,74282.8,8.17,-33.89,-35.07,0,*7C
1506934901.48,48518,18.75,74284.8,8.17,-34.07,-35.17,0,*73
1506934902.74,48519,18.75,74282.0,8.17,-34.71,-35.83,0,*7E
1506934903.94,48520,18.75,74280.8,8.19,-36.19,-37.27,0,*7A
1506934905.16,48521,18.75,74282.3,8.17,-35.17,-36.19,0,*74
1506934906.41,48522,18.75,74286.3,8.11,-36.25,-37.45,0,*7B
1506934907.65,48523,18.75,74286.5,8.11,-36.13,-37.03,0,*7D
1506934908.88,48524,18.75,74286.8,8.11,-35.17,-36.43,0,*78
1506934910.13,48525,18.75,74284.3,8.11,-35.01,-36.13,0,*7B
1506934911.35,48526,18.75,74290.0,8.09,-35.17,-36.13,0,*76
1506934912.57,48527,18.75,74288.3,8.09,-34.77,-35.89,0,*70
1506934913.8,48528,18.75,74286.3,8.09,-33.55,-34.65,0,*7B
1506934915.01,48529,18.75,74284.8,8.09,-34.59,-35.77,0,*73
1506934916.28,48530,18.75,74286.5,8.11,-33.49,-34.19,0,*7D
1506934917.53,48531,18.75,74284.8,8.15,-32.75,-33.61,0,*7E
1506934918.76,48532,18.75,74286.8,8.15,-32.69,-33.77,0,*77
1506934919.98,48533,18.75,74280.5,8.17,-32.13,-33.03,0,*7A
1506934921.26,48534,18.75,74284.8,8.17,-35.07,-36.13,0,*7B
1506934922.49,48535,18.75,74280.5,8.17,-34.89,-36.01,0,*7E
1506934923.77,48536,18.75,74286.3,8.17,-32.85,-33.89,0,*72
1506934925.02,48537,18.75,74284.5,8.19,-34.35,-35.65,0,*74
1506934926.26,48538,18.75,74290.5,8.19,-34.47,-35.65,0,*7E
1506934927.48,48539,18.75,74280.8,8.19,-35.23,-36.31,0,*7E
1506934928.74,48540,18.75,74280.5,8.19,-37.09,-38.29,0,*7D
1506934929.99,48541,18.75,74284.0,8.17,-36.79,-38.05,0,*7A
1506934931.18,48542,18.69,74278.0,8.15,-35.71,-37.03,0,*79
1506934932.42,48543,18.75,74280.5,8.15,-35.65,-36.79,0,*71
1506934933.64,48544,18.69,74284.5,8.15,-33.77,-34.59,0,*73
1506934934.86,48545,18.75,74284.5,8.15,-35.07,-36.19,0,*75
1506934936.09,48546,18.69,74280.8,8.11,-36.43,-37.57,0,*7A
1506934937.35,48547,18.69,74284.3,8.11,-34.47,-35.53,0,*7B
1506934938.57,48548,18.69,74284.0,8.11,-33.67,-34.59,0,*7A
1506934939.79,48549,18.69,74280.0,8.15,-32.57,-33.61,0,*71
1506934941.02,48550,18.69,74280.5,8.17,-33.37,-34.47,0,*7F
1506934942.27,48551,18.69,74282.5,8.17,-33.89,-34.89,0,*79
1506934943.52,48552,18.69,74282.3,8.19,-33.61,-34.53,0,*75
1506934944.75,48553,18.69,74280.8,8.19,-32.51,-33.43,0,*70
1506934945.98,48554,18.69,74282.5,8.19,-32.69,-33.61,0,*7C
1506934947.22,48555,18.69,74282.8,8.21,-33.03,-34.19,0,*73
1506934948.43,48556,18.69,74280.0,8.23,-33.31,-34.41,0,*7E
1506934949.65,48557,18.69,74286.0,8.23,-32.75,-33.83,0,*77
1506934950.93,48558,18.69,74284.8,8.25,-34.01,-35.07,0,*71
1506934952.17,48559,18.69,74286.3,8.25,-34.13,-35.23,0,*75
1506934953.42,48560,18.69,74282.0,8.25,-36.61,-37.75,0,*79
1506934954.64,48561,18.69,74278.0,8.23,-37.63,-38.97,0,*7E
1506934955.89,48562,18.69,74284.5,8.21,-35.53,-36.55,0,*7E
1506934957.14,48563,18.69,74280.3,8.21,-33.03,-34.01,0,*7F
1506934958.36,48564,18.69,74282.5,8.21,-34.25,-35.17,0,*7D
1506934959.57,48565,18.69,74276.3,8.21,-35.59,-37.03,0,*71
1506934960.82,48566,18.69,74274.3,8.21,-35.41,-36.55,0,*79
1506934962.03,48567,18.69,74276.8,8.19,-35.77,-37.15,0,*73
1506934963.25,48568,18.69,74280.5,8.17,-36.01,-37.27,0,*71
1506934964.51,48569,18.69,74282.3,8.19,-34.53,-35.65,0,*7F
1506934965.74,48570,18.69,74280.3,8.19,-34.13,-35.23,0,*71
1506934966.96,48571,18.69,74282.5,8.19,-33.55,-34.65,0,*76
1506934968.22,48572,18.69,74280.0,8.19,-33.73,-34.83,0,*79
1506934969.47,48573,18.69,74286.8,8.19,-35.41,-36.61,0,*71
1506934970.74,48574,18.69,74286.3,8.17,-35.35,-36.37,0,*78
1506934971.99,48575,18.69,74286.0,8.19,-34.31,-35.41,0,*70
1506934973.23,48576,18.69,74284.5,8.19,-34.53,-35.77,0,*72
1506934974.43,48577,18.69,74288.5,8.19,-36.19,-37.45,0,*7C
1506934975.66,48578,18.69,74288.0,8.19,-34.83,-36.01,0,*73
1506934976.87,48579,18.69,74290.0,8.19,-36.73,-38.05,0,*75
1506934978.14,48580,18.69,74290.3,8.17,-36.91,-37.93,0,*71
1506934979.34,48581,18.63,74286.5,8.15,-36.07,-37.15,0,*73
1506934980.62,48582,18.69,74288.0,8.11,-35.95,-37.21,0,*7B
1506934981.87,48583,18.69,74286.5,8.11,-35.13,-36.13,0,*74
1506934983.09,48584,18.63,74284.8,8.11,-35.17,-36.31,0,*77
1506934984.33,48585,18.69,74286.3,8.11,-36.91,-38.05,0,*72
1506934985.55,48586,18.63,74284.0,8.11,-36.31,-37.45,0,*70
1506934986.78,48587,18.63,74288.5,8.11,-35.01,-36.07,0,*76
1506934988.06,48588,18.63,74288.0,8.11,-37.39,-38.79,0,*77
1506934989.33,48589,18.63,74288.0,8.07,-38.23,-40.21,0,*77
1506934990.55,48590,18.63,74288.5,8.03,-38.35,-39.65,0,*72
1506934991.82,48591,18.63,74292.3,8.03,-35.65,-36.37,0,*73
1506934993.08,48592,18.63,74288.8,8.03,-34.59,-35.65,0,*7A
1506934994.31,48593,18.63,74294.0,8.03,-34.77,-35.71,0,*72
1506934995.52,48594,18.63,74294.0,8.05,-34.59,-35.71,0,*7F
1506934996.72,48595,18.63,74294.5,8.05,-35.29,-36.43,0,*7A
1506934997.94,48596,18.63,74298.0,8.05,-34.71,-35.65,0,*72
1506934999.2,48597,18.63,74300.5,8.07,-34.53,-35.59,0,*7E
1506935000.44,48598,18.63,74304.3,8.07,-34.25,-35.23,0,*7D
1506935001.68,48599,18.63,74300.5,8.07,-34.13,-35.23,0,*79
1506935002.91,48600,18.63,74300.8,8.09,-34.19,-35.01,0,*7E
1506935004.14,48601,18.63,74298.5,8.09,-32.79,-33.83,0,*73
1506935005.39,48602,18.63,74300.5,8.15,-33.09,-34.01,0,*76
1506935006.63,48603,18.63,74302.8,8.15,-33.43,-34.35,0,*7E
1506935007.86,48604,18.63,74302.8,8.15,-34.31,-35.29,0,*77
1506935009.05,48605,18.63,74304.3,8.15,-36.01,-36.97,0,*71
1506935010.27,48606,18.63,74302.0,8.15,-36.43,-37.69,0,*74
1506935011.49,48607,18.63,74302.0,8.15,-36.79,-37.75,0,*71
1506935012.71,48608,18.63,74302.3,8.09,-37.99,-39.35,0,*76
1506935013.98,48609,18.63,74302.0,8.07,-37.99,-39.15,0,*7B
1506935015.2,48610,18.63,74300.5,8.07,-36.31,-37.33,0,*7A
1506935016.45,48611,18.63,74306.8,8.07,-37.33,-38.23,0,*76
1506935017.72,48612,18.63,74308.8,8.07,-34.31,-35.23,0,*79
1506935018.97,48613,18.63,74308.3,8.07,-34.89,-35.95,0,*76
1506935020.21,48614,18.63,74306.8,8.07,-35.01,-36.01,0,*7E
1506935021.43,48615,18.63,74308.8,8.09,-34.41,-35.35,0,*70
1506935022.69,48616,18.63,74310.0,8.09,-33.73,-34.65,0,*71
1506935023.93,48617,18.56,74310.8,8.09,-33.73,-34.77,0,*73
1506935025.18,48618,18.56,74308.3,8.09,-34.35,-35.53,0,*7E
1506935026.4,48619,18.63,74304.3,8.11,-36.07,-37.03,0,*72
1506935027.69,48620,18.56,74308.0,8.11,-34.01,-34.95,0,*70
1506935028.94,48621,18.56,74308.8,8.11,-34.47,-35.35,0,*78
1506935030.17,48622,18.63,74312.8,8.15,-34.35,-35.29,0,*77
1506935031.45,48623,18.63,74310.8,8.17,-34.31,-35.23,0,*7A
1506935032.73,48624,18.63,74314.5,8.17,-36.37,-37.63,0,*7F
1506935033.98,48625,18.63,74320.0,8.15,-36.79,-38.29,0,*77
1506935035.25,48626,18.63,74320.3,8.11,-37.63,-38.79,0,*7F
1506935036.5,48627,18.63,74314.3,8.11,-37.39,-38.55,0,*7F
1506935037.77,48628,18.56,74312.0,8.07,-37.99,-39.23,0,*7D
1506935039.02,48629,18.63,74308.0,8.03,-41.29,-42.69,0,*70
1506935040.26,48630,18.63,74308.0,7.99,-41.17,-42.57,0,*74
1506935041.49,48631,18.56,74302.0,7.95,-41.41,-42.89,0,*79
1506935042.68,48632,18.56,74304.3,7.93,-40.65,-42.13,0,*78
1506935043.92,48633,18.63,74310.8,7.85,-39.65,-40.97,0,*7E
1506935045.19,48634,18.56,74304.3,7.83,-39.71,-41.03,0,*76
1506935046.4,48635,18.56,74304.0,7.81,-39.85,-41.29,0,*76
1506935047.59,48636,18.56,74306.5,7.79,-40.47,-41.87,0,*76
1506935048.86,48637,18.56,74308.3,7.77,-40.97,-42.45,0,*79
1506935050.09,48638,18.56,74304.8,7.73,-39.91,-41.41,0,*7D
1506935051.37,48639,18.56,74304.5,7.73,-39.23,-40.41,0,*74
1506935052.62,48640,18.56,74296.5,7.71,-37.09,-38.29,0,*7F
1506935053.85,48641,18.56,74298.5,7.71,-35.23,-36.43,0,*76
1506935055.07,48642,18.56,74298.5,7.71,-35.95,-37.33,0,*7E
1506935056.29,48643,18.56,74304.0,7.73,-37.27,-38.61,0,*7E
1506935057.54,48644,18.56,74302.0,7.71,-36.91,-38.11,0,*70
1506935058.76,48645,18.56,74300.8,7.73,-37.33,-38.61,0,*7D
1506935060.01,48646,18.56,74298.0,7.71,-37.09,-38.29,0,*79
1506935061.21,48647,18.56,74300.0,7.71,-36.73,-37.75,0,*72
1506935062.44,48648,18.56,74304.3,7.71,-34.89,-35.83,0,*71
1506935063.69,48649,18.56,74310.3,7.71,-36.61,-37.69,0,*72
1506935064.93,48650,18.56,74314.0,7.67,-38.11,-39.15,0,*71
1506935066.13,48651,18.56,74314.3,7.67,-38.55,-39.65,0,*77
1506935067.38,48652,18.56,74308.3,7.65,-38.79,-40.03,0,*76
1506935068.63,48653,18.56,74304.0,7.63,-38.79,-40.21,0,*71
1506935069.88,48654,18.56,74300.0,7.61,-37.69,-38.85,0,*7B
1506935071.13,48655,18.56,74302.5,7.59,-37.51,-38.67,0,*76
1506935072.39,48656,18.56,74304.3,7.59,-40.41,-41.67,0,*7A
1506935073.61,48657,18.56,74306.0,7.55,-40.79,-42.13,0,*7C
1506935074.87,48658,18.56,74298.8,7.55,-40.41,-41.55,0,*79
1506935076.11,48659,18.56,74296.8,7.51,-39.59,-40.47,0,*79
1506935077.31,48660,18.56,74296.0,7.51,-37.75,-38.85,0,*72
1506935078.54,48661,18.56,74288.0,7.51,-36.79,-37.87,0,*73
1506935079.79,48662,18.56,74282.5,7.51,-36.37,-37.51,0,*71
1506935081.01,48663,18.56,74288.3,7.51,-36.79,-38.05,0,*74
1506935082.25,48664,18.56,74288.8,7.51,-38.11,-39.23,0,*76
1506935083.53,48665,18.56,74294.5,7.49,-37.93,-39.29,0,*71
1506935084.75,48666,18.56,74290.0,7.49,-40.73,-41.87,0,*77
1506935085.99,48667,18.56,74290.5,7.47,-40.53,-41.93,0,*7F
1506935087.19,48668,18.56,74288.5,7.41,-39.35,-40.53,0,*75
1506935088.41,48669,18.56,74290.5,7.39,-38.97,-40.15,0,*70
1506935089.61,48670,18.56,74284.3,7.37,-37.33,-38.55,0,*7C
1506935090.82,48671,18.56,74282.0,7.37,-35.47,-36.43,0,*75
1506935092.07,48672,18.56,74286.5,7.39,-34.53,-35.59,0,*74
1506935093.29,48673,18.56,74284.3,7.43,-35.13,-36.07,0,*75
1506935094.54,48674,18.56,74286.3,7.43,-35.13,-36.25,0,*72
1506935095.79,48675,18.56,74292.8,7.43,-35.13,-36.13,0,*76
1506935097.05,48676,18.56,74294.3,7.43,-34.95,-35.89,0,*7A
1506935098.32,48677,18.56,74284.3,7.49,-34.95,-36.01,0,*72
1506935099.52,48678,18.5,74282.0,7.51,-33.55,-34.47,0,*7F
1506935100.8,48679,18.56,74284.0,7.53,-34.01,-34.95,0,*75
1506935102.04,48680,18.5,74286.3,7.55,-34.65,-35.59,0,*76
1506935103.23,48681,18.56,74290.0,7.55,-33.55,-34.41,0,*7B
1506935104.47,48682,18.5,74290.0,7.55,-33.67,-34.65,0,*7F
1506935105.72,48683,18.56,74292.5,7.57,-35.23,-36.19,0,*73
1506935106.99,48684,18.5,74290.5,7.57,-36.37,-37.51,0,*7F
1506935108.25,48685,18.5,74292.5,7.57,-36.19,-37.21,0,*75
1506935109.47,48686,18.5,74296.0,7.59,-36.37,-37.57,0,*75
1506935110.69,48687,18.5,74298.5,7.59,-36.37,-37.33,0,*76
1506935111.92,48688,18.56,74306.0,7.57,-35.29,-36.19,0,*72
1506935113.17,48689,18.5,74302.0,7.57,-36.43,-37.63,0,*70
1506935114.4,48690,18.5,74298.0,7.57,-35.89,-36.97,0,*77
1506935115.65,48691,18.5,74298.3,7.57,-35.83,-36.97,0,*7C
1506935116.87,48692,18.5,74296.8,7.57,-36.01,-37.15,0,*7D
1506935118.15,48693,18.5,74296.8,7.57,-37.51,-38.67,0,*72
1506935119.38,48694,18.5,74296.8,7.55,-37.87,-39.03,0,*7F
1506935120.61,48695,18.5,74302.8,7.55,-35.29,-36.13,0,*76
1506935121.85,48696,18.5,74304.5,7.55,-34.95,-35.77,0,*72
1506935123.08,48697,18.5,74300.5,7.55,-34.41,-35.35,0,*7C
1506935124.34,48698,18.5,74300.0,7.57,-34.77,-35.83,0,*79
1506935125.57,48699,18.5,74302.3,7.57,-37.33,-38.55,0,*7D
1506935126.79,48700,18.5,74308.5,7.55,-36.67,-37.69,0,*7E
1506935128.06,48701,18.5,74304.0,7.57,-35.35,-36.37,0,*73
1506935129.32,48702,18.5,74304.8,7.57,-34.71,-35.65,0,*75
1506935130.54,48703,18.5,74306.5,7.57,-33.67,-34.71,0,*70
1506935131.82,48704,18.5,74308.5,7.61,-34.31,-35.23,0,*70
1506935133.1,48705,18.5,74304.8,7.61,-34.31,-35.23,0,*71
1506935134.32,48706,18.5,74304.5,7.63,-35.17,-36.13,0,*75
1506935135.58,48707,18.5,74300.8,7.65,-35.01,-35.95,0,*78
1506935136.84,48708,18.5,74304.8,7.65,-34.95,-35.89,0,*76
1506935138.1,48709,18.5,74302.3,7.65,-36.55,-37.81,0,*73
1506935139.35,48710,18.5,74296.3,7.65,-38.55,-39.79,0,*7C
1506935140.61,48711,18.5,74296.0,7.61,-37.15,-38.29,0,*76
1506935141.86,48712,18.5,74302.8,7.61,-37.15,-38.23,0,*7F
1506935143.15,48713,18.5,74296.5,7.61,-38.29,-39.59,0,*72
1506935144.4,48714,18.5,74296.0,7.59,-37.69,-38.79,0,*76
1506935145.63,48715,18.5,74298.8,7.59,-36.43,-37.51,0,*7B
1506935146.86,48716,18.5,74298.0,7.59,-37.15,-38.29,0,*7A
1506935148.08,48717,18.5,74296.8,7.59,-36.55,-37.69,0,*75
1506935149.32,48718,18.5,74298.0,7.57,-37.63,-38.73,0,*74
1506935150.55,48719,18.5,74294.8,7.55,-37.57,-38.79,0,*7A
1506935151.81,48720,18.5,74292.0,7.55,-38.79,-39.97,0,*72
1506935153.03,48721,18.5,74290.3,7.51,-38.05,-39.23,0,*73
1506935154.23,48722,18.5,74288.8,7.51,-36.01,-37.15,0,*71
1506935155.48,48723,18.5,74290.3,7.51,-35.83,-36.79,0,*72
1506935156.71,48724,18.5,74286.5,7.51,-36.97,-37.93,0,*76
1506935157.97,48725,18.5,74286.0,7.53,-36.73,-37.99,0,*75
1506935159.25,48726,18.5,74284.0,7.49,-36.37,-37.51,0,*79
1506935160.49,48727,18.5,74286.0,7.49,-35.71,-36.67,0,*7D
1506935161.73,48728,18.5,74286.0,7.51,-35.41,-36.49,0,*74
1506935162.93,48729,18.5,74290.5,7.51,-35.59,-36.55,0,*71
1506935164.19,48730,18.5,74282.8,7.53,-35.77,-36.91,0,*7F
1506935165.42,48731,18.5,74284.0,7.53,-35.71,-36.73,0,*74
1506935166.68,48732,18.44,74280.0,7.51,-34.83,-35.65,0,*7D
1506935167.9,48733,18.5,74280.5,7.53,-33.55,-34.41,0,*75
1506935169.18,48734,18.5,74276.0,7.53,-34.01,-34.83,0,*7A
1506935170.41,48735,18.44,74278.0,7.55,-35.29,-36.13,0,*7D
1506935171.63,48736,18.44,74276.0,7.55,-35.59,-36.49,0,*76
1506935172.91,48737,18.5,74282.5,7.57,-36.25,-37.39,0,*7B
1506935174.14,48738,18.5,74284.0,7.55,-36.25,-37.27,0,*79
1506935175.39,48739,18.5,74284.3,7.57,-36.49,-37.57,0,*77
1506935176.63,48740,18.5,74282.5,7.55,-35.95,-37.03,0,*78
1506935177.83,48741,18.5,74286.8,7.55,-34.25,-35.13,0,*70
1506935179.09,48742,18.44,74280.3,7.53,-33.15,-34.01,0,*73
1506935180.34,48743,18.44,74282.5,7.57,-32.19,-33.15,0,*79
1506935181.56,48744,18.5,74284.0,7.59,-33.77,-34.71,0,*7C
1506935182.81,48745,18.44,74286.0,7.61,-33.55,-34.31,0,*72
1506935184.03,48746,18.44,74282.0,7.61,-32.91,-33.95,0,*71
1506935185.27,48747,18.44,74286.8,7.63,-33.31,-34.31,0,*70
1506935186.52,48748,18.5,74290.5,7.65,-33.37,-34.31,0,*7F
1506935187.79,48749,18.44,74290.0,7.65,-32.97,-33.89,0,*71
1506935189.01,48750,18.44,74290.8,7.71,-32.35,-33.27,0,*70
1506935190.21,48751,18.44,74284.3,7.71,-32.13,-33.03,0,*73
1506935191.4,48752,18.44,74292.0,7.75,-33.37,-34.41,0,*72
1506935192.64,48753,18.44,74292.0,7.75,-32.97,-33.89,0,*7B
1506935193.86,48754,18.44,74294.8,7.75,-32.97,-33.95,0,*71
1506935195.1,48755,18.5,74298.5,7.77,-32.97,-33.95,0,*72
1506935196.35,48756,18.44,74296.0,7.77,-33.31,-34.07,0,*70
1506935197.57,48757,18.44,74300.0,7.79,-33.49,-34.41,0,*72
1506935198.78,48758,18.44,74302.8,7.79,-34.07,-35.01,0,*75
1506935200.01,48759,18.44,74302.8,7.81,-33.67,-34.65,0,*71
1506935201.27,48760,18.44,74304.0,7.81,-34.31,-35.07,0,*7A
1506935202.5,48761,18.44,74304.3,7.81,-32.57,-33.27,0,*79
1506935203.75,48762,18.44,74306.3,7.83,-32.91,-33.77,0,*77
1506935205.0,48763,18.44,74304.5,7.83,-35.95,-36.97,0,*7E
1506935206.23,48764,18.44,74304.3,7.81,-35.95,-36.97,0,*7B
1506935207.44,48765,18.44,74304.0,7.81,-35.13,-36.01,0,*7B
1506935208.68,48766,18.44,74304.8,7.81,-35.23,-36.01,0,*7B
1506935209.93,48767,18.44,74300.5,7.81,-34.01,-34.83,0,*73
1506935211.13,48768,18.44,74304.5,7.81,-33.21,-33.83,0,*7E
1506935212.36,48769,18.44,74300.8,7.83,-33.03,-33.67,0,*77
1506935213.61,48770,18.44,74296.3,7.83,-33.67,-34.35,0,*7D
1506935214.81,48771,18.44,74298.0,7.85,-33.03,-33.95,0,*75
1506935216.01,48772,18.44,74300.3,7.85,-33.37,-34.41,0,*7F
1506935217.26,48773,18.44,74298.0,7.87,-33.03,-33.89,0,*78
1506935218.54,48774,18.44,74292.3,7.87,-32.85,-33.77,0,*71
1506935219.8,48775,18.44,74290.0,7.87,-34.31,-35.17,0,*79
1506935221.03,48776,18.44,74290.0,7.89,-35.71,-36.49,0,*79
1506935222.25,48777,18.44,74290.0,7.89,-35.17,-36.13,0,*77
1506935223.51,48778,18.44,74288.3,7.85,-35.95,-37.09,0,*74
1506935224.72,48779,18.44,74288.5,7.85,-34.77,-35.59,0,*7F
1506935225.98,48780,18.44,74288.3,7.87,-32.79,-33.55,0,*79
1506935227.25,48781,18.44,74292.0,7.87,-33.89,-34.83,0,*7A
1506935228.49,48782,18.44,74290.5,7.87,-34.89,-35.89,0,*75
1506935229.72,48783,18.44,74288.8,7.89,-35.95,-36.85,0,*79
1506935230.96,48784,18.44,74294.3,7.89,-34.07,-34.95,0,*77
1506935232.18,48785,18.44,74288.8,7.89,-33.55,-34.35,0,*7C
1506935233.43,48786,18.44,74286.8,7.89,-34.19,-35.35,0,*71
1506935234.65,48787,18.44,74286.8,7.93,-34.47,-35.29,0,*7D
1506935235.9,48788,18.44,74290.0,7.89,-35.65,-36.49,0,*7D
1506935237.14,48789,18.44,74288.8,7.89,-34.95,-35.89,0,*7D
1506935238.35,48790,18.44,74286.0,7.93,-35.59,-36.67,0,*7C
1506935239.57,48791,18.44,74284.5,7.89,-35.53,-36.67,0,*7C
1506935240.81,48792,18.44,74288.3,7.89,-34.95,-35.71,0,*70
1506935242.06,48793,18.44,74286.8,7.89,-33.09,-34.01,0,*75
1506935243.32,48794,18.44,74290.5,7.93,-33.77,-34.65,0,*72
1506935244.55,48795,18.44,74288.5,7.93,-33.21,-34.01,0,*72
1506935245.83,48796,18.44,74286.0,7.95,-33.61,-34.53,0,*74
1506935247.03,48797,18.44,74286.3,7.97,-33.15,-33.95,0,*79
1506935248.28,48798,18.44,74290.3,7.97,-34.31,-35.35,0,*7B
1506935249.56,48799,18.44,74288.8,7.95,-35.23,-36.25,0,*78
1506935250.77,48800,18.44,74292.3,7.97,-34.71,-35.71,0,*71
1506935252.01,48801,18.44,74292.3,7.97,-34.83,-35.77,0,*7B
1506935253.27,48802,18.44,74294.5,7.97,-33.77,-34.65,0,*76
1506935254.53,48803,18.38,74292.3,7.97,-34.31,-35.07,0,*77
1506935255.78,48804,18.44,74292.8,7.97,-37.99,-39.15,0,*7E
1506935257.01,48805,18.44,74292.3,7.97,-36.73,-37.93,0,*7A
1506935258.24,48806,18.44,74292.8,7.93,-38.67,-40.03,0,*7F
1506935259.5,48807,18.38,74290.8,7.87,-36.85,-37.99,0,*7A
1506935260.76,48808,18.38,74294.5,7.87,-37.27,-38.49,0,*7E
1506935261.99,48809,18.44,74298.8,7.85,-37.45,-38.49,0,*79
1506935263.21,48810,18.38,74294.5,7.85,-36.67,-37.69,0,*7D
1506935264.48,48811,18.38,74296.3,7.83,-37.69,-39.03,0,*77
1506935265.72,48812,18.44,74302.0,7.81,-37.39,-38.55,0,*71
1506935266.94,48813,18.38,74298.3,7.81,-38.05,-39.29,0,*7A
1506935268.17,48814,18.38,74298.5,7.79,-37.21,-38.17,0,*7F
1506935269.42,48815,18.38,74296.5,7.79,-38.91,-40.09,0,*7A
1506935270.66,48816,18.38,74294.0,7.73,-39.23,-40.03,0,*71
1506935271.94,48817,18.38,74302.5,7.73,-38.91,-40.09,0,*72
1506935273.17,48818,18.38,74294.5,7.71,-39.65,-40.85,0,*71
1506935274.39,48819,18.38,74298.8,7.67,-36.49,-37.45,0,*7A
1506935275.62,48820,18.38,74302.5,7.67,-37.21,-38.35,0,*77
1506935276.82,48821,18.38,74300.3,7.67,-36.97,-37.75,0,*71
1506935278.07,48822,18.38,74298.5,7.65,-37.63,-38.85,0,*7A
1506935279.34,48823,18.38,74306.8,7.65,-37.69,-38.79,0,*72
1506935280.6,48824,18.38,74302.3,7.65,-36.67,-37.81,0,*72
1506935281.85,48825,18.38,74300.3,7.67,-36.91,-37.81,0,*78
1506935283.1,48826,18.38,74304.3,7.61,-35.23,-36.19,0,*77
1506935284.35,48827,18.38,74300.8,7.61,-35.23,-36.19,0,*76
1506935285.6,48828,18.38,74300.3,7.63,-35.23,-36.25,0,*74
1506935286.83,48829,18.38,74302.8,7.65,-34.59,-35.59,0,*77
1506935288.1,48830,18.38,74302.0,7.65,-35.01,-35.95,0,*73
1506935289.36,48831,18.38,74296.8,7.65,-35.53,-36.37,0,*7E
1506935290.58,48832,18.38,74298.3,7.67,-35.35,-36.31,0,*79
1506935291.77,48833,18.38,74302.5,7.67,-34.89,-36.07,0,*7B
1506935293.0,48834,18.38,74302.0,7.67,-34.71,-35.53,0,*79
1506935294.23,48835,18.38,74300.3,7.71,-35.83,-36.97,0,*78
1506935295.45,48836,18.38,74300.5,7.71,-35.59,-36.61,0,*75
1506935296.68,48837,18.38,74300.5,7.71,-34.01,-35.01,0,*7D
1506935297.93,48838,18.38,74300.8,7.73,-34.31,-35.13,0,*70
1506935299.2,48839,18.38,74300.0,7.73,-34.83,-35.53,0,*7C
1506935300.42,48840,18.38,74304.0,7.75,-34.25,-35.23,0,*7F
1506935301.62,48841,18.38,74306.3,7.75,-35.59,-36.73,0,*72
1506935302.86,48842,18.38,74304.5,7.73,-36.25,-37.33,0,*7A
1506935304.14,48843,18.38,74306.8,7.73,-34.83,-35.65,0,*74